Weather History for Spirit of St Louis, MO

Change the Weather History Date:

Wednesday, November 21, 2012

  Actual Average Record
Temperature  
Mean Temperature 50 °F -  
Max Temperature 64 °F 51 °F 68 °F (2003)
Min Temperature 35 °F 31 °F 12 °F (2000)
Degree Days  
Heating Degree Days 16    
Moisture  
Dew Point 41 °F    
Average Humidity 88    
Maximum Humidity 100    
Minimum Humidity 53    
Precipitation  
Precipitation 0.00 in - - ()
Sea Level Pressure  
Sea Level Pressure 30.22 in    
Wind  
Wind Speed 1 mph (SSE)    
Max Wind Speed 7 mph    
Max Gust Speed -    
Visibility 3 miles    
Events Fog    
Averages and records for this station are not official NWS values.
T = Trace of Precipitation, MM = Missing Value Source: NWS Daily Summary

Daily Weather History Graph

Daily Weather History Graph

Search for Another Location

Airport:

Trip Planner

Search our weather history database for the weather conditions in past years. The results will help you decide how hot, cold, wet, or windy it might be!

Date:

Astronomy

Nov. 21, 2012 Rise Set
Actual Time 6:51 AM CST 4:45 PM CST
Civil Twilight 6:23 AM CST 5:13 PM CST
Nautical Twilight 5:50 AM CST 5:46 PM CST
Astronomical Twilight 5:18 AM CST 6:18 PM CST
Moon 12:58 PM CST (11/21) 12:15 AM CST (11/21)
Length of Visible Light 10h 50m
Length of Day
9h 53m
First Quarter, 62% of the Moon is Illuminated
Nov 21
First Quarter
Nov 28
Full
Dec 6
Last Quarter
Dec 13
New
Dec 19
First Quarter

Hourly Weather History & Observations

Time (CST) Temp. Windchill Dew Point Humidity Pressure Visibility Wind Dir Wind Speed Gust Speed Precip Events Conditions
12:08 AM 37.4 °F - 35.6 °F 93% 30.21 in 2.0 mi Calm Calm - N/A   Partly Cloudy
12:16 AM 37.4 °F - 35.6 °F 93% 30.22 in 2.0 mi Calm Calm - N/A   Mostly Cloudy
12:22 AM 37.4 °F - 35.6 °F 93% 30.21 in 0.8 mi Calm Calm - N/A   Mist
12:28 AM 35.6 °F - 35.6 °F 100% 30.22 in 0.2 mi Calm Calm - N/A Fog Fog
12:46 AM 37.4 °F - 37.4 °F 100% 30.21 in 0.2 mi Calm Calm - N/A Fog Fog
12:54 AM 39.0 °F - 37.9 °F 96% 30.22 in 0.2 mi Calm Calm - N/A Fog Fog
1:44 AM 41.0 °F - 39.2 °F 93% 30.21 in 0.2 mi Calm Calm - N/A Fog Fog
1:54 AM 41.0 °F - 39.9 °F 96% 30.22 in 0.2 mi Calm Calm - N/A Fog Fog
2:11 AM 42.8 °F - 41.0 °F 93% 30.22 in 0.2 mi Calm Calm - N/A Fog Fog
2:54 AM 41.0 °F - 39.9 °F 96% 30.23 in 0.2 mi Calm Calm - N/A Fog Fog
3:54 AM 39.9 °F - 39.0 °F 97% 30.23 in 0.2 mi Calm Calm - N/A Fog Fog
4:54 AM 39.0 °F - 37.9 °F 96% 30.25 in 0.2 mi Calm Calm - N/A Fog Fog
5:54 AM 39.0 °F - 37.9 °F 96% 30.26 in 0.2 mi Calm Calm - N/A Fog Fog
6:54 AM 37.9 °F - 37.0 °F 97% 30.27 in 0.2 mi Calm Calm - N/A Fog Fog
7:54 AM 39.0 °F - 37.9 °F 96% 30.29 in 0.2 mi Calm Calm - N/A Fog Fog
8:54 AM 39.9 °F 37.8 °F 39.9 °F 100% 30.29 in 0.2 mi SE 3.5 mph - N/A Fog Fog
9:39 AM 42.8 °F - 41.0 °F 93% 30.29 in 0.2 mi Calm Calm - N/A Fog Fog
9:54 AM 42.1 °F - 41.0 °F 96% 30.30 in 0.2 mi Calm Calm - N/A Fog Fog
10:23 AM 44.6 °F - 42.8 °F 93% 30.29 in 0.2 mi Calm Calm - N/A Fog Fog
10:54 AM 44.1 °F - 43.0 °F 96% 30.30 in 0.2 mi Calm Calm - N/A Fog Fog
11:22 AM 44.6 °F - 44.6 °F 100% 30.27 in 0.5 mi Calm Calm - N/A Fog Fog
11:38 AM 46.4 °F - 44.6 °F 93% 30.26 in 3.0 mi Calm Calm - N/A   Clear
11:54 AM 48.9 °F - 46.0 °F 90% 30.27 in 6.0 mi Calm Calm - N/A   Clear
12:54 PM 57.9 °F - 48.0 °F 70% 30.23 in 6.0 mi Calm Calm - N/A   Haze
1:54 PM 61.0 °F - 46.9 °F 60% 30.21 in 10.0 mi Calm Calm - N/A   Clear
2:54 PM 64.0 °F - 46.9 °F 54% 30.19 in 10.0 mi Calm Calm - N/A   Clear
3:54 PM 62.1 °F - 45.0 °F 53% 30.18 in 10.0 mi South 3.5 mph - N/A   Clear
4:54 PM 54.0 °F - 45.0 °F 72% 30.17 in 10.0 mi Calm Calm - N/A   Clear
5:54 PM 52.0 °F - 45.0 °F 77% 30.17 in 10.0 mi SE 5.8 mph - N/A   Clear
6:54 PM 54.0 °F - 46.9 °F 77% 30.17 in 10.0 mi SE 4.6 mph - N/A   Clear
7:54 PM 50.0 °F - 45.0 °F 83% 30.16 in 5.0 mi Calm Calm - N/A   Haze
8:54 PM 48.9 °F - 44.1 °F 83% 30.15 in 6.0 mi SSE 5.8 mph - N/A   Haze
9:54 PM 41.0 °F - 39.0 °F 93% 30.16 in 3.0 mi Calm Calm - N/A   Clear
10:54 PM 46.0 °F 43.9 °F 41.0 °F 83% 30.15 in 6.0 mi South 4.6 mph - N/A   Haze
11:54 PM 52.0 °F - 44.1 °F 74% 30.13 in 10.0 mi South 6.9 mph - N/A   Clear